THOR ABLESTAR DEB, 132

Orbit data source: Space-Track

THOR ABLESTAR DEB, 132 is space debris in LEO originally from a launch on Thu, 29 Jun 1961 UTC launched from the Air Force Eastern Test Range (AFETR). Debris objects in space refer to the collection of defunct objects orbiting the Earth. Examples of debris include non-operational satellites, rocket bodies, and fragments generated from explosions, collisions, or faulty payload assembly.

Loading next visibility...
Identifier
132, 1961-015S
Orbit
LEO
Country
Flag of USUS
Related business
Manufacturer
Unknown
Mission
Spacecraft
Bus & Motor
Unknown
Mass
Unknown
Launch date (UTC)
1961-06-29 (65 years ago)
Launch vehicle
Unknown
Launch site
Air Force Eastern Test Range (AFETR)
Object type
Payload
Rocket body
Debris
Shape & HBR
Unknown shape, 0.4 m
Radar Cross Section
Medium (>0.1 m² and <1 m²)

Expand to show TLE details & history
Last TLE update: 12 hours ago

TLE from 12 hours ago
0 THOR ABLESTAR DEB
1 00132U 61015S   26105.77101888  .00000001  00000-0  57733-4 0  9993
2 00132  66.6578 126.1683 0080456 235.2982 124.0500 13.94763858294963
Epoch: 2026-04-15T18:30Z
TLE epoch observation values (Epoch: 2026-04-15T18:30:16.031Z)
Latitude
-0.00002°
Longitude
4.67336°
Altitude
947.219 km
Speed
7.362 km/s
True Right ascension
08h 24m 40s
True Declination
0° 00' 00"
Sunlit
Object was in daylight at epoch
Visualization orbit readout
Latitude
Unknown
Longitude
Unknown
Altitude
Unknown
Speed
Unknown
Apparent Right ascension
Unknown
Apparent Declination
Unknown
Sunlit
N/A
Visualization observer readout
Local Sidereal Time
13:02:17
Azimuth
Unknown
Elevation
Unknown
Doppler factor
Unknown
Orbital elements
Apogee altitude
969.031 km
Perigee altitude
851.75 km
Semi-major axis
7,288.527 km
Eccentricity
0.00805
Inclination
66.6578°
RAAN
126.1683°
Arg. of periapsis
235.2982°
True anomaly
124.80959°
Mean anomaly
124.05°
Eccentric anomaly
124.43022°
Mean motion
3.48806 °/min
Orbital period
103.21 mins
BSTAR
0.000057733
Loading maneuver chart data...
Computing Atmospheric mass density...

Documentation

Showing up to 5 results
|